Startseite
Über Mich
AHP4
Galerie
Sehschlangen
Tourenbuch
Bookmarks
Elektronik
Bewertung
Geschichten
[Tagesmessung] [Jahreswerte] [Information]

Messwerte vom 10.05.2022

Die letzten Messwerte von 23:58:47 Uhr:
KategorieMesswert
Temperatur [°C]18
Luftdruck [mBar]999
Sonneneinstrahlung0
Wind [km/h]5 aus West
Niederschlag [l/m²]0
rel.Luftfeucht.74.5%
CO2 [ppm]796

Diagramme
Messwerte vom 10.05.2022
Tagesaggregation
KategorieMinimumMaximumSchnittSumme
Temperatur [°C]83018.9854
Luftdruck [mBar]99710071001.9125
Sonneneinstrahlung245134.8604
Wind [km/h]20
rF [%]2787.257.58
Niederschlag [l/m²]0
CO2 [ppm]468800645.2
Einordnung alsVegetationstag
Sommertag
Heißer Tag

Messungen an benachbarten Tagen: Zur Jahresaggregation 2022
Tabelle aller Messwerte
UhrzeitTemperatur [°C]Luftdruck [mBar]SonneWind [km/h]RichtungRegen [l/m²]rF [%]CO2 [ppm]
00:01:47 10 1007 0 0 N 0 75.2 633
00:04:47 10 1007 0 0 N 0 75.2 635
00:07:50 9 1007 0 0 N 0 75.7 642
00:10:47 9 1007 0 0 N 0 75.8 650
00:13:47 9 1006 0 0 N 0 75.9 645
00:16:47 9 1007 0 0 N 0 76.4 641
00:19:46 9 1006 0 0 N 0 76.6 638
00:22:45 9 1006 0 0 N 0 76.8 641
00:25:47 9 1006 0 0 N 0 77.1 649
00:28:46 9 1006 0 0 N 0 77.5 644
00:31:45 9 1006 0 0 N 0 77.9 641
00:34:48 9 1006 0 0 NO 0 77.9 641
00:37:47 9 1006 0 0 NO 0 77.7 646
00:40:48 9 1006 0 0 NO 0 77.9 651
00:43:48 9 1006 0 0 NO 0 78.8 647
00:46:46 9 1006 0 0 NO 0 79.4 651
00:49:49 9 1006 0 0 NO 0 79 660
00:52:48 9 1006 0 0 NO 0 79 657
00:55:48 9 1006 0 0 NO 0 79.1 659
00:58:50 9 1006 0 0 NO 0 79.1 660
01:01:47 9 1007 0 0 NO 0 79.2 665
01:04:46 9 1006 0 0 NO 0 78.9 656
01:07:47 9 1006 0 0 NO 0 79.2 656
01:10:47 9 1006 0 0 NO 0 79.4 655
01:13:48 9 1006 0 0 NO 0 79.5 661
01:16:45 9 1006 0 0 N 0 80 661
01:19:47 9 1006 0 0 N 0 80.6 664
01:22:47 9 1006 0 0 N 0 80.9 668
01:25:47 9 1006 0 0 N 0 80.9 672
01:28:47 9 1006 0 0 N 0 80.9 686
01:31:46 9 1006 0 0 N 0 81 677
01:34:48 9 1006 0 0 N 0 81.2 677
01:37:45 9 1006 0 0 N 0 81.4 682
01:40:47 9 1006 0 0 N 0 81.2 686
01:43:47 9 1006 0 0 N 0 80.9 688
01:46:47 9 1006 0 0 N 0 81 685
01:49:48 9 1006 0 0 N 0 81.3 687
01:52:46 9 1006 0 0 N 0 81.8 692
01:55:48 9 1006 0 0 N 0 82 694
01:58:46 9 1006 0 0 N 0 81.9 695
02:01:47 9 1006 0 0 N 0 81.6 689
02:04:46 9 1006 0 0 N 0 81.8 683
02:07:46 9 1006 0 0 N 0 82.4 694
02:10:49 9 1006 0 0 N 0 82.3 694
02:13:49 9 1006 0 0 N 0 82.3 694
02:16:47 9 1006 0 0 N 0 82.4 695
02:19:47 9 1006 0 0 N 0 83 692
02:22:47 9 1006 0 0 N 0 83.4 694
02:25:47 9 1006 0 0 N 0 83.1 695
02:28:47 9 1006 0 0 N 0 83.4 697
02:31:47 9 1006 0 0 O 0 83.7 698
02:34:45 9 1006 0 0 O 0 83 694
02:37:49 9 1006 0 0 O 0 83.2 688
02:40:47 9 1006 0 0 O 0 83.4 703
02:43:49 9 1006 0 0 O 0 84 705
02:46:47 9 1006 0 0 O 0 84.4 708
02:49:49 9 1006 0 0 O 0 84.5 706
02:52:47 8 1006 0 0 O 0 84.3 702
02:55:46 8 1006 0 0 O 0 83.9 711
02:58:46 8 1006 0 0 O 0 83.8 707
03:01:47 8 1006 0 0 O 0 83.7 700
03:04:45 8 1006 0 0 O 0 83.5 694
03:07:48 8 1006 0 0 O 0 83.7 688
03:10:46 8 1005 0 0 O 0 83.7 686
03:13:47 8 1006 0 0 O 0 84.6 690
03:16:46 8 1006 0 0 O 0 85.9 700
03:19:46 8 1006 0 0 O 0 87.2 697
03:22:45 8 1006 0 0 O 0 85.9 700
03:25:49 8 1006 0 0 O 0 85.2 703
03:28:47 8 1006 0 0 O 0 84.8 702
03:31:46 8 1006 0 0 O 0 84.8 711
03:34:45 8 1006 0 0 O 0 84.6 704
03:37:48 8 1006 0 0 O 0 84.9 706
03:40:45 8 1005 0 0 O 0 84.9 700
03:43:48 8 1005 0 0 O 0 84.6 700
03:46:48 8 1006 0 0 O 0 84.7 697
03:49:45 8 1005 0 0 O 0 84.7 697
03:52:47 8 1006 0 0 O 0 84.8 694
03:55:46 8 1005 0 0 O 0 84.9 697
03:58:46 8 1006 0 0 O 0 85.4 700
04:01:48 8 1006 0 0 O 0 86.1 702
04:04:47 8 1005 0 0 O 0 85.8 702
04:07:46 8 1006 0 0 O 0 85.4 706
04:10:45 8 1005 0 0 O 0 85 703
04:13:45 8 1005 0 0 O 0 85 702
04:16:48 8 1006 0 0 O 0 85 702
04:19:48 8 1005 0 0 O 0 85.1 706
04:22:48 8 1006 0 0 O 0 85.2 705
04:25:46 8 1005 0 0 O 0 85.3 712
04:28:45 8 1006 0 0 O 0 85.5 715
04:31:48 8 1005 0 0 O 0 86.2 704
04:34:46 8 1006 0 0 O 0 86.2 697
04:37:47 8 1005 0 0 O 0 86 692
04:40:45 8 1006 0 0 O 0 85.9 701
04:43:46 8 1005 0 0 O 0 86.1 703
04:46:45 8 1006 0 0 O 0 85.9 701
04:49:46 8 1005 0 0 O 0 86.2 703
04:52:45 8 1005 0 0 O 0 86.1 708
04:55:48 8 1005 0 0 O 0 86.2 702
04:58:46 8 1005 0 0 O 0 86.3 702
05:01:46 8 1005 0 0 O 0 86.4 704
05:04:47 8 1005 4 0 O 0 86.4 700
05:07:46 8 1006 6 0 O 0 86.4 697
05:10:44 8 1005 9 0 O 0 86.3 700
05:13:48 8 1005 14 0 O 0 86 699
05:16:48 8 1005 20 0 O 0 85.7 702
05:19:47 8 1004 27 0 O 0 85.5 702
05:22:47 8 1004 35 0 O 0 85.5 702
05:25:45 8 1004 43 0 O 0 85.6 702
05:28:45 8 1005 51 0 O 0 85.5 700
05:31:49 8 1005 60 0 O 0 85.5 704
05:34:49 8 1005 70 0 O 0 85.7 705
05:37:45 8 1005 78 0 O 0 85.8 704
05:40:48 8 1005 87 0 O 0 85.8 700
05:43:46 8 1004 96 0 O 0 85.8 696
05:46:49 8 1005 103 0 O 0 86.1 694
05:49:48 8 1005 110 0 O 0 86.5 700
05:52:47 8 1005 116 0 O 0 86.5 706
05:55:47 8 1004 124 0 O 0 86.5 705
05:58:49 8 1005 132 0 O 0 86.5 707
06:01:48 8 1004 137 0 O 0 86.8 707
06:04:50 8 1004 143 0 O 0 86.9 706
06:07:50 8 1004 149 0 NO 0 87 700
06:10:50 9 1004 155 0 NO 0 86.9 698
06:13:49 9 1004 159 0 NO 0 86.6 702
06:16:50 9 1003 162 0 NO 0 86.6 695
06:19:50 9 1004 166 0 NO 0 86.6 694
06:22:47 9 1005 168 0 NO 0 86.5 692
06:25:48 9 1004 169 0 NO 0 86.3 700
06:28:49 10 1004 172 0 NO 0 85.9 705
06:31:49 10 1004 178 0 NO 0 85.6 709
06:34:47 10 1004 181 0 NO 0 85.5 703
06:37:49 10 1005 179 0 NO 0 85.3 703
06:40:49 10 1004 180 0 NO 0 85 711
06:43:47 11 1004 181 0 NO 0 84.5 707
06:46:50 11 1004 183 0 NO 0 83.6 715
06:49:47 11 1005 185 0 NO 0 83.2 715
06:52:49 11 1004 188 0 NO 0 83 717
06:55:48 11 1004 191 0 NO 0 82.9 711
06:58:50 11 1004 193 0 NO 0 82.8 712
07:01:49 11 1005 197 0 NO 0 82.8 714
07:04:49 11 1004 198 0 NO 0 82.8 723
07:07:48 13 1004 199 0 NO 0 82.2 723
07:10:51 14 1005 200 0 SO 0 80.8 715
07:13:48 14 1004 202 0 NO 0 79.3 711
07:16:49 16 1004 203 0 NO 0 76.7 711
07:19:48 16 1005 203 0 NO 0 71 707
07:22:47 16 1004 204 0 NO 0 70.6 711
07:25:49 16 1003 204 0 NO 0 70.7 717
07:28:47 16 1004 204 0 O 0 70 726
07:31:49 16 1004 204 0 O 0 69.2 749
07:34:46 16 1004 206 0 O 0 69.1 769
07:37:48 16 1004 205 0 SO 0 70.6 776
07:40:49 17 1004 205 0 O 0 69.1 676
07:43:49 17 1004 203 0 NO 0 68.9 597
07:46:47 17 1004 200 0 O 0 69.1 619
07:49:50 17 1005 199 1 NO 0 68.2 694
07:52:47 16 1004 199 1 O 0 68.5 719
07:55:48 16 1004 200 0 O 0 69.2 733
07:58:48 16 1004 201 0 O 0 69.7 737
08:01:51 16 1004 201 1 SO 0 70.1 732
08:04:47 16 1004 202 0 SO 0 70.7 721
08:07:50 16 1004 203 5 SW 0 71 720
08:10:48 16 1004 204 0 O 0 71 720
08:13:50 16 1004 206 0 SO 0 71.6 717
08:16:48 16 1004 206 0 SO 0 71.8 717
08:19:48 16 1004 206 1 SO 0 71.9 720
08:22:49 17 1004 207 0 NO 0 71.6 717
08:25:48 17 1004 208 5 S 0 71.7 720
08:28:46 17 1004 209 1 O 0 70.5 713
08:31:51 17 1004 210 0 SO 0 69.7 709
08:34:49 17 1004 211 4 SO 0 69.7 706
08:37:51 18 1003 211 0 SO 0 69.5 705
08:40:49 18 1004 212 1 O 0 69.2 698
08:43:48 18 1004 213 1 O 0 68.9 705
08:46:50 19 1003 214 2 SO 0 68.5 697
08:49:50 19 1003 215 3 SO 0 68 694
08:52:49 19 1004 216 0 SO 0 67.7 696
08:55:51 20 1003 216 1 SO 0 67.3 700
08:58:48 20 1004 216 3 S 0 66 696
09:01:49 20 1004 215 2 S 0 65.4 692
09:04:49 20 1004 214 0 SO 0 64.1 688
09:07:49 20 1004 212 4 S 0 62.7 694
09:10:49 20 1004 212 1 SO 0 62.3 696
09:13:49 20 1003 210 2 SW 0 60.6 691
09:16:51 20 1004 208 1 SO 0 59.2 683
09:19:49 21 1003 208 1 S 0 58.4 682
09:22:49 21 1003 207 3 S 0 58.1 682
09:25:48 21 1004 209 0 S 0 58.8 679
09:28:49 20 1003 210 2 SO 0 58.6 679
09:31:47 20 1004 212 3 S 0 58.6 682
09:34:49 21 1003 215 3 SW 0 57.9 685
09:37:49 21 1003 216 2 S 0 57.7 681
09:40:48 21 1003 217 1 SO 0 57.9 680
09:43:49 21 1003 218 3 S 0 53.7 680
09:46:47 21 1003 217 1 W 0 52.9 681
09:49:49 22 1002 216 3 SW 0 52.2 682
09:52:51 22 1003 217 4 SW 0 51.2 671
09:55:52 22 1003 216 6 SO 0 50.4 668
09:58:51 22 1003 215 1 NO 0 50.5 667
10:01:48 22 1003 213 2 S 0 50.1 670
10:04:49 22 1003 213 1 SW 0 49.6 668
10:07:49 23 1003 214 3 SO 0 50.4 671
10:10:49 23 1003 215 3 O 0 50.4 666
10:13:51 23 1003 216 2 W 0 47.9 661
10:16:47 23 1003 218 3 W 0 47.9 660
10:19:49 23 1003 220 1 SW 0 48.9 665
10:22:50 23 1003 222 2 NW 0 49.9 662
10:25:49 23 1003 224 0 S 0 48.1 656
10:28:51 23 1003 225 7 SW 0 47.6 650
10:31:50 23 1002 226 1 W 0 47.2 643
10:34:49 24 1003 226 3 SO 0 48 635
10:37:48 24 1003 226 2 S 0 46.1 644
10:40:49 24 1002 226 5 S 0 45 644
10:43:48 24 1003 227 5 W 0 45.9 638
10:46:47 24 1003 226 4 SW 0 47.1 633
10:49:48 25 1002 226 4 SO 0 45.8 632
10:52:47 25 1003 226 1 SO 0 45.4 632
10:55:47 25 1003 226 5 W 0 45.4 633
10:58:47 24 1002 226 2 W 0 45.2 633
11:01:50 25 1002 226 6 SW 0 45.4 625
11:04:49 25 1002 226 2 S 0 45.8 617
11:07:47 25 1003 227 3 W 0 45.5 616
11:10:51 25 1002 227 3 SW 0 45.6 624
11:13:50 25 1003 227 4 S 0 45.6 633
11:16:49 25 1003 226 4 SW 0 45.5 626
11:19:49 25 1003 226 2 W 0 45.6 626
11:22:49 25 1002 225 0 O 0 45.2 618
11:25:48 25 1002 224 3 SO 0 45.1 620
11:28:49 25 1003 223 2 O 0 46.9 612
11:31:48 25 1003 221 4 NW 0 46.6 615
11:34:46 25 1003 220 1 W 0 45 621
11:37:48 25 1002 219 1 NW 0 45.3 620
11:40:49 25 1002 219 0 SW 0 46.4 618
11:43:47 25 1003 220 1 SW 0 46.9 611
11:46:50 25 1002 222 2 SO 0 46.8 611
11:49:50 25 1002 223 0 NW 0 45.8 607
11:52:50 25 1003 224 1 SO 0 45.5 606
11:55:49 26 1002 225 5 S 0 45.5 603
11:58:48 26 1003 226 4 NO 0 44.5 600
12:01:50 27 1002 226 3 O 0 40.5 600
12:04:48 27 1002 228 6 S 0 39.3 594
12:07:49 27 1002 228 2 S 0 38.4 594
12:10:50 27 1002 229 3 W 0 38.7 588
12:13:49 27 1002 229 6 SO 0 37 589
12:16:50 27 1002 228 8 O 0 36.6 585
12:19:49 27 1002 227 3 SW 0 37 585
12:22:51 26 1002 227 3 SO 0 38 589
12:25:48 26 1002 226 4 N 0 38.7 579
12:28:47 26 1002 227 0 W 0 40.2 585
12:31:50 26 1002 227 4 SW 0 41.2 574
12:34:49 27 1002 227 7 SO 0 39.2 573
12:37:49 27 1002 226 2 O 0 38.1 575
12:40:48 27 1002 226 2 W 0 38.8 578
12:43:48 27 1002 225 3 SO 0 39.3 582
12:46:51 27 1002 222 3 W 0 37.6 583
12:49:47 27 1002 220 6 S 0 37.6 580
12:52:50 27 1002 223 2 SW 0 37.9 571
12:55:49 27 1002 225 5 SW 0 37.3 571
12:58:48 28 1002 225 3 S 0 36.8 565
13:01:47 28 1002 223 1 S 0 37.3 574
13:04:48 28 1002 222 3 SW 0 37.2 574
13:07:48 27 1002 226 9 SW 0 36.6 571
13:10:47 27 1002 227 6 SW 0 37.7 568
13:13:50 28 1002 229 5 W 0 38.3 560
13:16:49 28 1002 231 11 S 0 34.5 562
13:19:46 28 1002 230 4 S 0 34.3 564
13:22:50 29 1002 229 7 S 0 35 562
13:25:47 29 1002 229 4 S 0 35.7 559
13:28:48 28 1002 230 5 S 0 33.7 551
13:31:52 28 1002 231 8 SO 0 33.8 550
13:34:50 29 1002 231 7 S 0 34.3 545
13:37:49 29 1002 231 7 SW 0 33.8 542
13:40:47 28 1002 230 7 S 0 33.2 547
13:43:47 28 1001 231 5 SW 0 34.3 550
13:46:51 28 1002 231 7 W 0 33.7 551
13:49:45 28 1002 232 4 W 0 34.2 550
13:52:50 29 1002 234 2 SW 0 35.2 541
13:55:47 29 1002 234 9 W 0 30.7 545
13:58:49 29 1002 234 5 SW 0 32.4 541
14:01:48 29 1002 235 1 SO 0 32.8 541
14:04:50 29 1002 230 7 S 0 29.5 538
14:07:51 29 1002 231 10 S 0 29.2 544
14:10:49 28 1001 231 7 SO 0 31 544
14:13:48 27 1002 233 5 NW 0 31.6 538
14:16:50 27 1001 236 8 S 0 32.4 534
14:19:48 28 1001 238 5 W 0 32.6 532
14:22:33 27 1002 240 20 SW 0 40 533
14:25:46 28 1002 233 14 S 0 29.2 524
14:28:50 28 1002 238 2 O 0 30.7 521
14:31:49 28 1001 238 12 O 0 31.8 521
14:34:47 28 1002 235 6 S 0 31.7 519
14:37:50 28 1002 236 4 NO 0 31.4 521
14:40:49 29 1002 238 3 SO 0 31.4 518
14:43:49 29 1002 239 3 SW 0 31.2 516
14:46:48 29 1002 241 4 SO 0 31 509
14:49:51 29 1001 243 9 SW 0 29.5 510
14:52:51 29 1001 244 2 O 0 30.6 510
14:55:47 30 1001 241 3 S 0 28 512
14:58:49 29 1001 243 1 O 0 28.7 509
15:01:47 30 1001 243 4 S 0 29.6 509
15:04:47 30 1000 240 5 S 0 30 507
15:07:47 30 1001 241 1 S 0 29.8 504
15:10:49 30 1001 243 3 SW 0 28.7 504
15:13:50 29 1001 242 14 NW 0 27 500
15:16:49 29 1000 242 10 S 0 28 504
15:19:53 29 1000 236 5 SO 0 29.4 504
15:22:49 29 1001 227 4 O 0 30.2 507
15:25:48 28 1000 226 3 W 0 30.8 504
15:28:48 28 1001 227 5 SW 0 30.5 511
15:31:49 27 1000 224 4 SW 0 31.7 506
15:34:46 27 1000 223 5 S 0 32.7 504
15:37:49 27 1001 222 1 W 0 33 506
15:40:47 27 1000 218 4 O 0 33.6 509
15:43:47 27 999 217 8 SO 0 34.3 506
15:46:49 26 1001 216 9 SW 0 33.1 501
15:49:47 26 999 212 4 S 0 33.4 500
15:52:46 26 999 218 1 S 0 33.9 494
15:55:48 26 1000 223 0 S 0 35.4 492
15:58:50 26 999 226 5 S 0 35.6 486
16:01:49 26 999 227 3 NW 0 35 486
16:04:49 26 1000 227 5 S 0 35.8 482
16:07:50 26 999 226 1 S 0 36.3 488
16:10:49 26 1000 229 6 SW 0 36.1 492
16:13:50 27 999 231 3 SO 0 35.4 487
16:16:46 27 999 233 5 O 0 35.5 485
16:19:52 27 1000 232 2 SW 0 35.6 478
16:22:47 27 999 234 1 S 0 35.7 474
16:25:48 27 999 245 4 SO 0 36 480
16:28:53 28 999 242 3 N 0 36.1 485
16:31:31 26 998 238 4 SW 0 40 483
16:34:50 28 999 239 11 S 0 31.9 485
16:37:48 28 999 219 3 S 0 33.3 483
16:40:50 28 999 235 4 SO 0 33.7 468
16:43:48 27 999 239 3 O 0 34.3 480
16:46:48 27 998 237 5 SO 0 34 480
16:49:48 27 999 232 4 SW 0 33.3 480
16:52:47 27 999 229 2 N 0 33.1 483
16:55:49 27 998 231 3 SO 0 33.8 495
16:58:47 26 998 239 9 S 0 33.8 492
17:01:48 26 999 234 5 W 0 35 501
17:04:48 26 998 233 2 O 0 35.2 505
17:07:48 26 998 237 4 W 0 35.3 506
17:10:48 26 998 235 6 O 0 35 503
17:13:48 26 998 234 2 SW 0 35.5 506
17:16:48 26 998 233 4 SW 0 36.1 512
17:19:49 26 998 239 2 SW 0 36.6 521
17:22:48 27 998 237 3 S 0 36.6 527
17:25:49 27 998 237 5 SO 0 35.6 536
17:28:51 27 998 228 3 S 0 35.5 542
17:31:46 26 999 225 6 N 0 34.7 554
17:34:46 26 998 223 6 S 0 34.3 557
17:37:49 26 998 221 4 SO 0 35.2 565
17:40:46 26 998 219 7 S 0 35.8 572
17:43:47 25 999 216 6 S 0 35.7 574
17:46:49 25 998 214 1 S 0 36.9 585
17:49:49 25 998 218 2 S 0 37.1 591
17:52:48 25 998 219 6 SW 0 37.3 596
17:55:48 25 998 220 2 S 0 37.9 593
17:58:50 25 998 221 2 SW 0 38.2 595
18:01:48 25 998 215 4 SW 0 38.4 596
18:04:49 25 998 208 2 SW 0 37.9 599
18:07:48 25 998 199 1 W 0 39.2 601
18:10:48 25 998 198 5 SW 0 39.3 600
18:13:48 24 998 203 4 S 0 38.8 603
18:16:49 24 998 209 2 SW 0 39.2 609
18:19:49 24 998 209 5 SO 0 39.9 610
18:22:48 24 998 209 4 S 0 40 615
18:25:48 24 998 208 10 S 0 39.7 617
18:28:48 24 998 206 5 S 0 40 618
18:31:48 24 998 203 4 NW 0 39.9 627
18:34:48 24 998 196 4 S 0 40 641
18:37:47 24 998 188 2 W 0 39.8 641
18:40:47 24 998 179 11 S 0 40 644
18:43:49 24 998 172 4 SO 0 40.2 629
18:46:48 24 998 170 1 S 0 40.4 629
18:49:46 24 998 169 2 S 0 40.7 641
18:52:49 23 998 173 0 NO 0 41.2 658
18:55:49 23 998 180 1 SO 0 41.4 668
18:58:49 23 998 186 4 SW 0 41.6 676
19:01:47 23 998 192 0 S 0 41.8 677
19:04:47 23 998 196 3 NO 0 41.9 674
19:07:50 23 998 198 2 S 0 41.8 676
19:10:46 23 998 194 1 S 0 41.7 679
19:13:47 23 998 180 2 W 0 41.3 679
19:16:49 23 998 219 3 SW 0 41.4 682
19:19:50 24 998 221 1 SW 0 41.3 674
19:22:50 24 998 220 2 S 0 41.3 649
19:25:49 24 998 221 2 S 0 40.6 635
19:28:48 24 998 218 4 SO 0 40.3 625
19:31:48 24 998 217 2 W 0 40.3 612
19:34:48 24 998 212 3 S 0 40.1 615
19:37:47 24 998 208 5 S 0 40.1 609
19:40:45 24 998 211 5 S 0 40.4 612
19:43:47 24 998 213 10 S 0 40.5 612
19:46:49 24 998 201 5 S 0 40 609
19:49:48 23 998 198 5 S 0 40.1 615
19:52:50 23 998 197 5 SO 0 40.5 618
19:55:47 23 998 196 3 SO 0 40.5 615
19:58:47 23 998 195 1 SW 0 40.9 615
20:01:49 23 998 198 3 SO 0 41 609
20:04:48 23 998 201 4 S 0 41.2 607
20:07:49 23 998 195 1 S 0 41.4 604
20:10:50 23 998 191 3 S 0 41.8 603
20:13:51 23 998 188 5 SO 0 41.8 612
20:16:48 23 998 185 4 SW 0 42 609
20:19:47 23 998 183 2 W 0 41.8 612
20:22:50 22 998 181 3 SW 0 42.3 609
20:25:49 22 998 169 1 S 0 42.5 607
20:28:50 22 998 154 4 SW 0 42.9 607
20:31:48 22 998 143 3 SW 0 43.5 603
20:34:47 22 998 136 3 S 0 43.5 600
20:37:51 22 998 129 5 SW 0 44.1 604
20:40:50 22 998 118 4 SO 0 44.6 608
20:43:47 22 998 108 2 S 0 45.2 612
20:46:48 21 998 103 2 SO 0 45.5 615
20:49:49 21 998 88 3 SO 0 46 619
20:52:48 21 998 79 2 S 0 46.5 624
20:55:47 21 997 75 2 W 0 46.9 630
20:58:49 21 998 66 3 SW 0 47.2 638
21:01:50 21 998 56 0 SW 0 47.6 648
21:04:50 21 998 43 1 SO 0 48 656
21:07:49 21 998 28 2 S 0 48.3 653
21:10:48 21 998 20 1 SO 0 48.9 656
21:13:49 21 998 16 1 SW 0 49.2 665
21:16:46 21 998 12 3 SO 0 49.8 669
21:19:48 21 998 11 1 SO 0 49.9 674
21:22:48 21 998 8 2 S 0 50.4 679
21:25:50 21 998 7 0 SO 0 50.6 679
21:28:48 20 998 6 0 SW 0 50.8 694
21:31:46 20 998 4 1 SW 0 51 686
21:34:46 20 998 3 2 S 0 51.3 697
21:37:46 20 998 3 0 W 0 51.9 700
21:40:45 20 998 0 4 S 0 52.4 711
21:43:47 20 998 0 0 SW 0 52.8 722
21:46:45 20 998 0 1 W 0 53.3 717
21:49:50 20 998 0 2 SW 0 53.7 709
21:52:46 20 998 0 1 S 0 53.9 715
21:55:47 20 998 0 1 SW 0 53.9 717
21:58:47 20 998 0 0 S 0 54.2 724
22:01:46 20 998 0 0 W 0 54.6 733
22:04:48 20 998 0 0 S 0 54.7 736
22:07:47 20 998 0 0 SW 0 54.7 734
22:10:46 20 998 0 2 S 0 54.7 738
22:13:45 20 998 0 1 SO 0 54.7 741
22:16:46 20 998 0 0 S 0 55.1 738
22:19:47 20 998 0 1 SO 0 55.2 733
22:22:46 20 998 0 2 S 0 55.4 745
22:25:48 20 998 0 2 SO 0 55.9 754
22:28:47 20 998 0 2 W 0 55.8 768
22:31:48 20 998 0 2 O 0 55.6 772
22:34:47 20 998 0 3 SO 0 55.5 773
22:37:46 20 998 0 2 O 0 55.9 772
22:40:48 20 998 0 1 SW 0 56.1 774
22:43:46 20 998 0 1 S 0 56.2 775
22:46:47 20 998 0 2 S 0 56.2 781
22:49:50 20 998 0 2 SW 0 56.5 785
22:52:47 20 998 0 3 S 0 56.5 785
22:55:46 20 998 0 0 W 0 56.4 788
22:58:47 20 998 0 8 W 0 56.9 790
23:01:47 20 998 0 8 W 0 58.5 797
23:04:46 20 998 0 4 N 0 61.1 794
23:07:46 19 998 0 5 W 0 61.4 782
23:10:47 19 998 0 14 N 0 62.7 762
23:13:47 19 998 0 10 O 0 63.6 740
23:16:47 19 998 0 11 W 0 64.4 720
23:19:46 19 999 0 7 N 0 64.8 720
23:22:47 19 999 0 6 NW 0 65.2 719
23:25:46 19 998 0 5 N 0 65.7 726
23:28:46 19 999 0 4 N 0 66.5 736
23:31:46 19 998 0 2 W 0 67.5 750
23:34:48 18 998 0 4 N 0 68.7 762
23:37:49 18 998 0 9 NW 0 69.7 773
23:40:48 18 998 0 6 NW 0 70.7 776
23:43:45 18 998 0 4 O 0 71 779
23:46:49 18 998 0 5 NW 0 71.4 787
23:49:46 18 998 0 5 N 0 72.2 791
23:52:45 18 998 0 0 NO 0 72.9 800
23:55:47 18 998 0 2 SW 0 72.9 800
23:58:47 18 999 0 5 W 0 74.5 796

Letzte Änderung : 22-Jul-2022
Copyright Jens Köhler, Wolfsburg, Obere Dorfstraße 10d